{"data":{"norad_id":65133,"intl_designator":"2025-171B","name":"KUIPER-00088","alt_names":[],"object_type":"PAYLOAD","status":"ACTIVE","operator":null,"country":"US","launch_date":"2025-08-11","launch_site_code":"AFETR","launch_vehicle":null,"mission":null,"orbit_class":"UNKNOWN","rcs_meters":null,"size_class":null,"mass_kg":null,"dimensions":null,"purposes":[],"wikipedia_slug":null,"has_3d_model":false,"image_url":null,"decayed_at":null,"tle_current":{"epoch":"2026-09-21T19:26:00.585600Z","epoch_age_seconds":51788,"freshness":"FRESH","line1":"1 65133U 25171B   26264.80972900  .00002251  00000+0  32417-3 0  9998","line2":"2 65133  51.9006  18.3285 0000437 107.2335 252.8676 14.79938086 61832","mean_motion":14.79938086,"eccentricity":4.37e-5,"inclination_deg":51.9006,"raan_deg":18.3285,"arg_perigee_deg":107.2335,"mean_anomaly_deg":252.8676,"bstar":0.00032417,"rev_number":6183,"period_min":97.301367781679,"perigee_km":629.213339387,"apogee_km":629.82580857157,"semimajor_km":7007.6565739793,"source":"CELESTRAK","updated_at":"2026-09-22T09:00:30.149100Z"}}}